• In Deutschland
  • Länderverzeichnis
  • Für 7 Tage
  • Wassertemperatur
  • Satellitenkarten
  • Wetterkarte
  • Widgets
  • user-avatar
    Anmelden

    Stündliche Wetter Barra do Dande

    Heute, 21 Juni, Donnerstag

    Zeit Temperatur Niederschläge Wind Luftdruck Luftfeuchtigkeit
    00:00 +23°C° 0 mm 2 m/S 762 mmHg 90%
    01:00 +23°C° 0 mm 2 m/S 763 mmHg 88%
    02:00 +23°C° 0 mm 2 m/S 763 mmHg 88%
    03:00 +23°C° 0 mm 2 m/S 763 mmHg 87%
    04:00 +23°C° 0 mm 2 m/S 763 mmHg 87%
    05:00 +23°C° 0 mm 2 m/S 763 mmHg 87%
    06:00 +23°C° 0 mm 2 m/S 763 mmHg 87%
    07:00 +23°C° 0 mm 2 m/S 763 mmHg 85%
    08:00 +25°C° 0 mm 2 m/S 763 mmHg 75%
    09:00 +27°C° 0 mm 2 m/S 763 mmHg 66%
    10:00 +29°C° 0 mm 2 m/S 763 mmHg 56%
    11:00 +31°C° 0 mm 2 m/S 762 mmHg 51%
    12:00 +33°C° 0 mm 3 m/S 762 mmHg 45%
    13:00 +35°C° 0 mm 3 m/S 761 mmHg 42%
    14:00 +34°C° 0 mm 4 m/S 761 mmHg 45%
    15:00 +33°C° 0 mm 4 m/S 760 mmHg 49%
    16:00 +32°C° 0 mm 5 m/S 760 mmHg 52%
    17:00 +29°C° 0 mm 4 m/S 760 mmHg 62%
    18:00 +27°C° 0 mm 4 m/S 761 mmHg 72%
    19:00 +25°C° 0 mm 4 m/S 761 mmHg 82%
    20:00 +24°C° 0 mm 3 m/S 761 mmHg 85%
    21:00 +22°C° 0 mm 3 m/S 762 mmHg 88%
    22:00 +23°C° 0 mm 2 m/S 762 mmHg 91%
    23:00 +23°C° 0 mm 2 m/S 762 mmHg 92%

    Morgen, 22 Juni, Freitag

    Zeit Temperatur Niederschläge Wind Luftdruck Luftfeuchtigkeit
    00:00 +21°C° 0 mm 2 m/S 763 mmHg 93%
    01:00 +21°C° 0 mm 2 m/S 763 mmHg 94%
    02:00 +22°C° 0 mm 1 m/S 762 mmHg 94%
    03:00 +22°C° 0 mm 1 m/S 762 mmHg 95%
    04:00 +21°C° 0 mm 1 m/S 762 mmHg 95%
    05:00 +22°C° 0 mm 1 m/S 762 mmHg 94%
    06:00 +22°C° 0 mm 1 m/S 762 mmHg 93%
    07:00 +22°C° 0 mm 1 m/S 762 mmHg 91%
    08:00 +25°C° 0 mm 1 m/S 762 mmHg 79%
    09:00 +27°C° 0 mm 1 m/S 762 mmHg 66%
    10:00 +30°C° 0 mm 1 m/S 762 mmHg 53%
    11:00 +32°C° 0 mm 2 m/S 762 mmHg 49%
    12:00 +34°C° 0 mm 3 m/S 761 mmHg 44%
    13:00 +35°C° 0 mm 3 m/S 761 mmHg 40%
    14:00 +34°C° 0 mm 4 m/S 760 mmHg 46%
    15:00 +32°C° 0 mm 4 m/S 760 mmHg 53%
    16:00 +30°C° 0 mm 5 m/S 759 mmHg 59%
    17:00 +28°C° 0 mm 4 m/S 760 mmHg 68%
    18:00 +26°C° 0 mm 4 m/S 760 mmHg 77%
    19:00 +24°C° 0 mm 3 m/S 761 mmHg 86%
    20:00 +22°C° 0 mm 3 m/S 761 mmHg 89%
    21:00 +23°C° 0 mm 2 m/S 762 mmHg 91%
    22:00 +23°C° 0 mm 2 m/S 762 mmHg 94%
    23:00 +23°C° 0 mm 1 m/S 762 mmHg 94%

    übermorgen, 23 Juni, Samstag

    Zeit Temperatur Niederschläge Wind Luftdruck Luftfeuchtigkeit
    00:00 +23°C° 0 mm 1 m/S 762 mmHg 93%
    01:00 +23°C° 0 mm 1 m/S 762 mmHg 92%
    02:00 +23°C° 0 mm 1 m/S 762 mmHg 92%
    03:00 +22°C° 0 mm 1 m/S 761 mmHg 92%
    04:00 +22°C° 0 mm 1 m/S 761 mmHg 92%
    05:00 +22°C° 0 mm 1 m/S 761 mmHg 92%
    06:00 +22°C° 0 mm 1 m/S 761 mmHg 92%
    07:00 +22°C° 0 mm 1 m/S 761 mmHg 92%
    08:00 +25°C° 0 mm 1 m/S 762 mmHg 78%
    09:00 +28°C° 0 mm 1 m/S 762 mmHg 64%
    10:00 +31°C° 0 mm 1 m/S 762 mmHg 50%
    11:00 +32°C° 0 mm 1 m/S 761 mmHg 46%
    12:00 +34°C° 0 mm 2 m/S 760 mmHg 41%
    13:00 +35°C° 0 mm 2 m/S 759 mmHg 37%
    14:00 +34°C° 0 mm 3 m/S 759 mmHg 42%
    15:00 +33°C° 0 mm 4 m/S 758 mmHg 48%
    16:00 +32°C° 0 mm 4 m/S 758 mmHg 53%
    17:00 +29°C° 0 mm 4 m/S 758 mmHg 64%
    18:00 +26°C° 0 mm 4 m/S 758 mmHg 74%
    19:00 +24°C° 0 mm 3 m/S 759 mmHg 85%
    20:00 +24°C° 0 mm 3 m/S 759 mmHg 88%
    21:00 +23°C° 0 mm 2 m/S 760 mmHg 91%
    22:00 +23°C° 0 mm 2 m/S 761 mmHg 94%
    23:00 +23°C° 0 mm 2 m/S 761 mmHg 93%

    24 Juni, Sonntag

    Zeit Temperatur Niederschläge Wind Luftdruck Luftfeuchtigkeit
    00:00 +23°C° 0 mm 1 m/S 761 mmHg 93%
    01:00 +23°C° 0 mm 1 m/S 761 mmHg 93%
    02:00 +23°C° 0 mm 1 m/S 761 mmHg 91%
    03:00 +24°C° 0 mm 1 m/S 760 mmHg 89%
    04:00 +22°C° 0 mm 0 m/S 760 mmHg 88%
    05:00 +24°C° 0 mm 1 m/S 760 mmHg 88%
    06:00 +23°C° 0 mm 1 m/S 761 mmHg 87%
    07:00 +23°C° 0 mm 1 m/S 761 mmHg 87%
    08:00 +26°C° 0 mm 1 m/S 761 mmHg 75%
    09:00 +29°C° 0 mm 1 m/S 761 mmHg 62%
    10:00 +32°C° 0 mm 1 m/S 762 mmHg 50%
    11:00 +32°C° 0 mm 1 m/S 761 mmHg 47%
    12:00 +34°C° 0 mm 2 m/S 760 mmHg 43%
    13:00 +35°C° 0 mm 2 m/S 759 mmHg 40%
    14:00 +34°C° 0 mm 3 m/S 759 mmHg 44%
    15:00 +33°C° 0 mm 4 m/S 758 mmHg 49%
    16:00 +32°C° 0 mm 5 m/S 757 mmHg 54%
    17:00 +29°C° 0 mm 4 m/S 758 mmHg 63%
    18:00 +27°C° 0 mm 4 m/S 758 mmHg 72%
    19:00 +25°C° 0 mm 4 m/S 759 mmHg 81%
    20:00 +24°C° 0 mm 3 m/S 760 mmHg 85%
    21:00 +24°C° 0 mm 2 m/S 760 mmHg 89%
    22:00 +23°C° 0 mm 2 m/S 761 mmHg 93%
    23:00 +23°C° 0 mm 1 m/S 761 mmHg 93%

    25 Juni, Montag

    Zeit Temperatur Niederschläge Wind Luftdruck Luftfeuchtigkeit
    00:00 +23°C° 0 mm 1 m/S 761 mmHg 94%
    01:00 +23°C° 0 mm 1 m/S 761 mmHg 94%
    02:00 +23°C° 0 mm 1 m/S 760 mmHg 92%
    03:00 +24°C° 0 mm 1 m/S 760 mmHg 89%
    04:00 +22°C° 0 mm 0 m/S 760 mmHg 87%
    05:00 +24°C° 0 mm 1 m/S 760 mmHg 85%
    06:00 +24°C° 0 mm 1 m/S 761 mmHg 83%
    07:00 +24°C° 0 mm 1 m/S 761 mmHg 81%
    08:00 +27°C° 0 mm 1 m/S 761 mmHg 70%
    09:00 +29°C° 0 mm 1 m/S 761 mmHg 59%
    10:00 +32°C° 0 mm 1 m/S 761 mmHg 48%
    11:00 +33°C° 0 mm 1 m/S 760 mmHg 44%
    12:00 +35°C° 0 mm 2 m/S 759 mmHg 41%
    13:00 +36°C° 0 mm 2 m/S 758 mmHg 37%
    14:00 +35°C° 0 mm 3 m/S 758 mmHg 42%
    15:00 +34°C° 0 mm 4 m/S 757 mmHg 46%
    16:00 +32°C° 0 mm 5 m/S 757 mmHg 51%
    17:00 +29°C° 0 mm 4 m/S 758 mmHg 61%
    18:00 +27°C° 0 mm 4 m/S 758 mmHg 71%
    19:00 +25°C° 0 mm 3 m/S 759 mmHg 81%
    20:00 +24°C° 0 mm 3 m/S 759 mmHg 85%
    21:00 +24°C° 0 mm 2 m/S 760 mmHg 88%
    22:00 +23°C° 0 mm 2 m/S 760 mmHg 92%
    23:00 +23°C° 0 mm 2 m/S 760 mmHg 93%

    26 Juni, Dienstag

    Zeit Temperatur Niederschläge Wind Luftdruck Luftfeuchtigkeit
    00:00 +23°C° 0 mm 1 m/S 760 mmHg 94%
    01:00 +23°C° 0 mm 1 m/S 760 mmHg 94%
    02:00 +23°C° 0,1 mm 1 m/S 760 mmHg 92%
    03:00 +24°C° 0,1 mm 1 m/S 760 mmHg 89%
    04:00 +24°C° 0,1 mm 1 m/S 760 mmHg 87%
    05:00 +24°C° 0 mm 1 m/S 760 mmHg 86%
    06:00 +24°C° 0 mm 1 m/S 760 mmHg 86%
    07:00 +24°C° 0 mm 1 m/S 761 mmHg 86%
    08:00 +26°C° 0 mm 1 m/S 761 mmHg 74%
    09:00 +29°C° 0 mm 1 m/S 761 mmHg 61%
    10:00 +32°C° 0 mm 1 m/S 761 mmHg 49%
    11:00 +33°C° 0 mm 1 m/S 760 mmHg 46%
    12:00 +35°C° 0 mm 2 m/S 759 mmHg 43%
    13:00 +35°C° 0 mm 3 m/S 759 mmHg 40%
    14:00 +34°C° 0 mm 3 m/S 758 mmHg 45%
    15:00 +33°C° 0 mm 4 m/S 758 mmHg 50%
    16:00 +32°C° 0 mm 4 m/S 757 mmHg 55%
    17:00 +29°C° 0 mm 4 m/S 758 mmHg 64%
    18:00 +27°C° 0 mm 3 m/S 758 mmHg 73%
    19:00 +25°C° 0 mm 3 m/S 759 mmHg 82%
    20:00 +24°C° 0 mm 3 m/S 760 mmHg 85%
    21:00 +24°C° 0 mm 2 m/S 760 mmHg 89%
    22:00 +23°C° 0 mm 2 m/S 760 mmHg 92%
    23:00 +23°C° 0 mm 1 m/S 760 mmHg 93%
    Mehr zeigen